date,time,lon,lat,elon,elat,HP-Tx,HP-Ty,Cons-Type
2021-05-04,00:00:00,153.36966303750972,43.88785303008198,5.5578404611438,9.75103795038779,559.7325450432587,685.9723088084735,Kent(ME)
2021-05-04,06:00:00,152.0028017628235,45.61449859203907,5.9391239534823645,9.696713709901573,555.8871235898434,703.9804223136927,Kent(ME)
2021-05-04,12:00:00,151.63220060646356,47.44118382536562,5.899337231702648,8.947614653817805,554.8453004930653,721.8272082442563,Kent(ME)
2021-05-04,18:00:00,151.43362335149783,47.62609266481711,5.876235861179437,8.70387108700223,569.6351613949381,721.5290696396983,Kent(ME)
2021-05-05,00:00:00,151.17998344365995,47.896566165662115,5.869814649112993,8.409428383822306,581.4110542024393,722.1675852279533,Kent(ME)
2021-05-05,06:00:00,150.0240164473554,50.33443876973445,6.630771320806762,8.396919615310864,562.4068593864661,746.1662600401307,Kent(ME)
2021-05-05,12:00:00,146.44166451967004,53.266190121114334,6.909228392287018,8.668164800546979,525.8638424655586,775.2661630525783,Kent(ME)
2021-05-05,18:00:00,145.9952721382862,53.20436144416531,6.658210789317956,8.465570344077769,536.7543179263922,772.747047313415,Kent(ME)
2021-05-06,00:00:00,145.0681861566482,53.39392408100446,6.68132062357794,8.150597938476439,541.7425438720896,772.9472597696792,Kent(ME)
2021-05-06,06:00:00,137.74550889681623,56.02793961935892,7.265408113998068,7.601619838410572,495.3688374004202,799.7041435079157,Kent(ME)
2021-05-06,12:00:00,132.87104625949897,56.73491375336167,5.487120749171911,7.507728101194157,480.8788840019535,806.7227245669101,Kent(ME)
2021-05-06,18:00:00,132.38755884682598,56.91011252511043,5.362660548788802,7.1936922248509445,487.90307917439355,806.5521768379099,Kent(ME)
2021-05-07,00:00:00,131.4980052221146,57.17620055297259,5.433603874904871,7.09944588032552,491.3576057685961,807.4053062219963,Kent(ME)
2021-05-07,06:00:00,126.3057625956242,57.56896345174806,7.010435306503785,9.254930516845075,480.77807014565497,811.7481217668774,Kent(ME)
2021-05-07,12:00:00,121.55133531409179,57.591250101420016,6.760246747087174,11.702919845679293,476.0224860545087,812.6204345695476,Kent(ME)
2021-05-07,18:00:00,120.50661583609828,57.489298708274525,5.368858736835359,11.842867928044134,484.1272781314131,810.4148170125558,Kent(ME)
2021-05-08,00:00:00,119.44579673971273,57.31734707026892,4.443623223290859,12.206154256761366,492.4086231698276,807.602369472298,Kent(ME)
2021-05-08,06:00:00,118.97616630297412,52.511516987209504,5.2548134036433,15.333535097744443,562.3613207853238,761.193794724628,Kent(ME)
2021-05-08,12:00:00,117.20581438395463,45.15903874181035,7.551104408088684,16.798897169913833,655.5518985239326,681.2700898866545,Kent(ME)
2021-05-08,18:00:00,113.48960431345671,47.391997302218236,8.467914860950296,17.065617622458674,628.3429575382775,706.6739066918897,Kent(ME)
2021-05-09,00:00:00,109.42261187718297,48.561353081885166,8.694432922139391,17.09127165863659,612.3841093271809,719.8603938882442,Kent(ME)
2021-05-09,06:00:00,106.87694409606829,49.58515838021264,8.146055058248024,16.803406199041685,601.6460201931762,730.2091110367701,Kent(ME)
2021-05-09,12:00:00,104.72744826477182,50.808764524978535,7.920848817680906,16.29858095879824,588.8456139006923,742.1679463388294,Kent(ME)
2021-05-09,18:00:00,103.23181039882527,51.63793644724429,8.239425490046115,16.160470296258577,581.6173538006361,749.4543564772872,Kent(ME)
2021-05-10,00:00:00,109.08859950505143,62.1994633797013,10.014686708856768,2.318371664569605,nan,nan,Median
2021-05-10,06:00:00,103.76136857215454,62.6056215871262,10.053848676718074,1.9614880263538759,nan,nan,Median
2021-05-10,12:00:00,97.42815686530946,62.6056215871262,10.087034159249098,1.3639733287660925,nan,nan,Median
2021-05-10,18:00:00,92.7651147978759,62.6056215871262,9.314038961688002,1.1888287003133664,433.970216804672,844.8692254397051,Median
2021-05-11,00:00:00,89.21654304535907,62.804360591107724,8.414034979931124,1.2902737619205118,430.8209531058768,846.4148033541359,Median
2021-05-11,06:00:00,85.358626147103,62.61767965995614,7.489077562418133,1.2900993480741159,433.00141410314706,845.21007381501,Median
2021-05-11,12:00:00,83.29514583870093,62.24468788250773,7.019965205443502,1.1544976402817477,439.553168296719,841.7960461140145,Median
2021-05-11,18:00:00,81.17183494140303,62.24468788250773,6.7758225259607965,0.8336037702230155,nan,nan,Median
2021-05-12,00:00:00,78.23644668763492,62.24468788250773,6.554297416589696,0.7101001924570172,nan,nan,Median
2021-05-12,06:00:00,72.19148694569185,62.09918299731647,6.8886296634045445,0.6684380802146257,440.5121518809915,841.0538852577837,Median
2021-05-12,12:00:00,69.04682509005363,62.34600655182315,7.391105441422986,0.710047450717048,437.05753907274885,842.810514886177,Median
2021-05-12,18:00:00,66.02738266890464,62.4396611941638,7.610858713169067,0.6241224927483883,435.94124156302865,843.3476578055628,Median
2021-05-13,00:00:00,61.98672806006501,62.4396611941638,3.504107326831319,0.20630979575488204,435.2006661819164,843.602221391523,Median
2021-05-13,06:00:00,59.717818311913334,62.516245650246816,2.2689097481516782,0.07658445608301889,435.05196892695136,843.7012642593652,Median
2021-05-13,12:00:00,57.448908563761655,62.4396611941638,0.0,0.0,nan,nan,Median
2021-05-13,18:00:00,nan,nan,nan,nan,nan,nan,Median
2021-05-14,00:00:00,nan,nan,nan,nan,nan,nan,Median
2021-05-14,06:00:00,nan,nan,nan,nan,nan,nan,Median
2021-05-14,12:00:00,nan,nan,nan,nan,nan,nan,Median
2021-05-14,18:00:00,nan,nan,nan,nan,nan,nan,Median
